Theta_e
302 302 302 303 303 303 303 303 303 302 302 306 304 309 306 299 297 308 310 315 310 304 298 300 297 297 299 298 298 298 296 296 297 296 297 295 297 297 296 296 294 296 295 294 294 294 292 292 291 292 292 294 296 296 298 299 298 298 296 296 299 298 289 287 289 292 294 296 297 297 297 296 295 296 297 295 292 294 291 290 291 287 288 286 286 282 288
302 302 302 302 303 303 303 303 303 303 302 303 306 307 301 299 302 304 308 314 310 300 291 292 294 298 298 299 296 297 296 296 296 296 296 295 296 296 296 294 295 295 295 295 292 295 288 292 291 291 294 293 296 296 297 298 298 296 297 293 300 289 293 290 285 285 288 291 293 293 295 295 293 293 296 294 295 295 295 295 295 287 289 288 285 280 287
302 302 302 302 302 303 303 302 302 302 302 304 306 302 300 301 305 304 304 310 309 297 300 297 294 296 297 296 295 295 295 296 296 297 295 296 296 296 294 295 296 294 295 294 294 294 292 291 293 293 293 294 296 296 296 299 298 299 299 301 300 291 290 289 283 279 277 277 279 283 286 290 293 294 293 294 292 294 292 287 289 284 289 290 286 285 292
301 301 301 302 302 303 302 302 302 302 302 302 308 305 303 297 290 299 300 303 303 301 303 300 298 295 296 292 296 295 294 295 296 296 295 296 296 296 296 295 296 294 293 293 292 291 294 291 292 292 292 293 294 295 296 296 298 299 298 299 299 292 295 292 289 286 284 287 289 294 291 291 287 290 292 292 293 293 293 292 287 285 288 287 289 290 290
301 301 301 301 302 302 302 302 301 301 302 302 305 306 302 301 294 293 292 299 299 297 299 297 298 293 298 290 296 294 294 294 294 296 294 295 295 295 295 294 293 294 293 293 292 293 292 293 293 292 292 294 294 294 295 295 296 297 296 298 296 293 288 291 292 291 290 291 291 293 291 288 290 289 290 292 292 293 291 286 286 292 288 284 291 293 290
301 301 301 301 302 302 302 301 301 300 301 303 308 299 301 294 295 299 298 293 290 293 292 296 296 295 296 294 295 293 292 293 291 294 295 295 297 294 293 294 293 294 293 294 289 292 292 293 289 294 294 292 293 292 294 294 294 295 295 298 295 292 287 291 292 290 291 292 291 292 291 290 290 290 291 291 292 292 289 288 291 292 286 284 290 292 290
300 300 301 301 301 302 301 301 300 300 300 304 306 298 299 299 297 297 300 294 295 294 294 296 294 294 295 293 294 292 292 291 291 292 293 293 294 294 288 292 292 292 293 293 291 293 288 287 294 293 293 293 293 292 292 293 295 295 295 295 296 292 287 291 291 289 289 290 291 291 290 290 290 290 291 291 292 291 292 292 293 292 290 292 292 291 290
300 300 300 301 301 301 302 301 300 300 300 304 300 297 296 293 294 294 299 298 295 296 296 296 295 293 294 290 292 291 292 291 291 292 292 289 292 294 292 291 292 292 292 293 292 293 294 293 288 294 293 292 293 292 294 292 294 295 293 292 297 290 286 290 291 288 287 290 291 291 290 289 288 289 290 291 291 291 292 292 292 292 292 293 292 289 288
300 300 300 300 300 301 301 301 300 299 300 301 297 295 297 297 299 298 295 292 293 295 294 293 293 291 293 292 292 292 291 291 291 290 292 292 291 292 292 292 292 292 293 293 291 292 292 293 293 293 293 290 293 291 292 293 292 292 292 294 294 292 287 292 289 283 283 288 288 289 289 288 287 287 289 289 289 286 289 287 292 290 287 290 289 287 287
300 300 300 300 300 300 300 301 300 298 300 300 297 293 299 300 301 300 297 289 291 292 294 293 292 288 291 291 291 290 290 291 292 288 291 292 292 292 293 294 293 292 292 291 290 292 292 293 294 294 294 295 294 294 293 293 292 291 291 293 289 291 288 285 286 282 282 287 288 287 286 285 281 282 285 288 289 290 291 292 293 293 293 288 285 286 294
299 300 300 300 300 300 300 300 300 299 299 297 296 294 295 293 293 296 296 290 290 292 292 291 291 290 292 291 291 292 291 292 292 289 287 292 291 293 294 293 293 291 291 291 293 294 294 295 295 295 294 294 293 293 293 293 293 292 291 291 290 290 289 285 288 280 281 285 285 286 281 275 278 289 294 292 290 290 289 287 291 294 294 291 293 294 296
299 299 300 300 300 300 300 300 300 299 298 299 300 296 296 297 297 297 293 288 288 293 291 288 290 291 291 291 291 291 290 290 291 293 291 291 292 293 293 293 293 287 291 296 296 296 295 294 293 294 293 293 293 293 292 291 292 294 293 290 289 288 287 285 287 282 280 284 284 278 273 276 287 292 294 293 292 291 289 290 291 293 293 294 292 293 294
299 299 299 300 300 300 300 300 300 299 299 300 299 295 298 300 296 295 292 290 287 289 288 289 291 291 291 292 291 291 291 292 293 293 292 292 291 292 292 291 290 290 294 294 295 295 291 290 291 291 291 292 292 292 291 291 291 293 293 292 289 286 285 285 284 284 284 281 279 271 275 285 289 291 292 295 292 292 291 289 291 292 292 294 292 294 295
299 299 299 299 299 299 300 299 300 300 299 299 298 297 298 297 295 295 291 289 288 291 291 291 291 291 291 290 290 291 291 292 292 293 291 292 291 290 292 292 292 295 295 295 294 293 289 289 284 286 287 288 289 287 289 291 291 291 291 291 291 290 289 287 282 286 278 280 280 279 286 285 287 287 289 290 287 289 288 283 287 291 293 293 292 293 294
299 299 299 299 299 299 299 299 299 299 299 299 299 297 296 297 297 295 297 293 286 289 292 286 289 290 290 290 290 290 290 290 290 290 291 293 291 291 292 292 295 295 296 293 290 291 287 286 282 281 283 282 278 281 288 285 289 291 291 291 291 291 286 287 282 281 284 279 278 279 278 275 280 287 293 295 294 294 294 289 285 292 292 293 292 292 292
299 299 299 299 299 299 299 299 299 299 299 298 299 297 297 298 299 298 296 291 289 284 289 291 292 290 289 289 290 289 287 288 289 289 289 290 289 291 293 294 295 296 294 291 290 288 286 282 279 280 278 281 285 282 280 286 284 288 290 290 290 291 291 288 284 281 282 279 276 275 273 278 286 288 290 293 293 295 295 287 282 289 291 291 292 291 292
299 299 298 299 299 299 300 300 300 299 299 298 297 297 296 299 297 295 294 293 291 285 292 292 293 292 290 289 291 290 290 287 288 285 285 286 287 289 290 293 296 294 291 290 289 286 284 282 284 284 284 285 281 280 284 283 282 283 287 288 288 287 286 286 282 280 281 280 277 276 280 279 287 289 290 292 294 293 289 276 278 285 290 291 292 291 291
299 299 298 298 299 298 299 300 300 300 299 299 299 297 297 300 299 298 296 291 287 289 292 293 291 290 288 288 287 290 291 291 290 290 287 288 288 288 288 290 289 292 294 287 288 284 283 282 280 280 279 286 285 285 277 283 279 281 282 284 284 283 283 284 279 281 280 279 279 281 282 287 289 288 289 290 293 290 279 275 280 287 290 291 291 291 292
299 299 299 298 298 299 299 299 300 300 300 299 299 299 297 299 299 299 295 292 290 285 291 292 293 291 292 293 291 291 290 290 290 286 286 286 288 289 289 289 291 286 290 287 288 284 282 282 286 284 281 283 285 279 285 280 280 284 283 280 281 282 282 281 283 280 279 280 278 278 282 286 290 290 291 292 287 277 277 284 289 290 290 291 291 291 292
299 299 299 298 298 298 299 300 300 300 300 300 299 296 298 299 299 298 293 290 290 290 292 292 293 289 292 291 290 289 291 291 291 288 287 283 291 291 288 285 290 290 288 288 282 286 282 280 283 285 282 282 283 285 282 282 285 282 282 284 280 280 278 278 279 281 281 280 277 276 272 283 289 289 288 290 280 283 287 289 291 292 292 291 291 291 291
299 299 299 298 298 299 299 300 300 300 300 300 300 297 296 301 300 300 299 295 290 287 289 293 294 292 293 292 294 292 291 289 290 288 290 289 292 290 280 280 285 286 283 284 280 281 282 280 283 282 285 283 283 283 278 280 281 287 284 283 282 285 278 279 280 283 276 277 274 275 282 286 291 289 282 285 287 290 291 291 289 292 291 291 291 292 292
299 299 299 298 298 298 299 299 300 300 300 300 300 300 295 299 300 299 298 297 293 289 292 294 294 294 296 296 296 296 294 293 294 294 291 289 293 289 288 289 288 288 289 289 285 284 286 284 286 281 280 282 286 280 282 278 276 282 286 284 275 285 281 283 279 284 280 278 281 286 288 289 291 291 290 291 292 292 292 291 291 290 291 293 291 291 293
300 299 299 298 298 298 298 299 300 300 300 300 301 299 295 297 298 301 299 294 296 295 296 296 295 295 295 295 296 297 297 298 297 296 295 291 288 291 289 289 288 292 291 292 286 285 285 285 281 285 282 283 281 280 281 281 278 282 279 286 284 288 288 289 285 282 287 288 288 289 289 289 290 290 291 290 291 293 293 292 290 292 292 293 291 293 293
300 299 299 299 300 299 299 299 299 300 300 301 301 299 296 298 298 299 297 295 292 288 290 294 291 288 290 291 294 297 297 297 296 297 298 296 287 287 292 291 293 293 291 292 289 287 286 285 285 285 279 283 284 279 277 277 279 283 281 281 285 287 287 285 280 284 281 277 287 286 286 288 289 289 291 292 292 292 293 292 291 292 292 292 293 293 293
299 299 300 299 299 299 299 299 299 300 300 301 301 303 302 298 299 298 293 286 287 287 283 286 288 291 293 295 296 295 296 297 298 297 297 296 294 288 287 292 294 291 290 292 295 291 288 283 284 283 278 285 285 278 283 278 279 284 278 281 283 281 287 282 283 282 279 280 285 287 288 289 290 289 289 289 290 292 293 292 293 292 293 293 293 293 292
300 300 300 299 299 299 299 299 299 300 300 301 300 299 297 296 300 301 298 295 293 288 283 283 287 294 295 294 291 293 296 296 296 296 296 296 296 296 295 296 295 297 295 294 293 288 286 285 285 284 281 280 287 281 281 283 282 285 282 281 285 285 286 278 283 281 283 285 286 287 288 288 288 289 291 291 291 291 291 292 292 292 292 292 293 293 293
300 300 300 300 299 299 299 299 299 299 300 301 301 301 299 299 301 298 294 293 289 284 286 283 287 290 292 291 293 295 295 295 297 296 295 295 295 296 295 294 293 293 292 291 292 289 287 285 284 282 284 284 287 285 286 284 283 281 281 285 288 285 281 284 282 279 279 280 283 286 280 280 285 288 290 290 291 291 291 291 291 292 292 291 291 292 293
301 301 300 300 299 299 299 299 298 299 299 300 301 301 302 300 299 300 300 298 292 284 284 285 287 290 294 292 293 295 295 295 295 295 294 294 295 295 295 294 294 291 290 289 285 286 285 282 283 286 286 287 283 282 286 286 285 283 283 284 286 283 284 283 280 279 278 284 286 287 286 286 287 288 290 291 292 292 291 291 291 292 293 293 292 292 292
301 301 300 299 299 299 299 299 298 298 299 300 301 299 299 301 301 301 301 301 298 292 289 288 290 290 285 288 294 294 294 295 295 294 293 292 293 294 294 293 292 292 291 289 288 287 285 285 287 285 284 288 284 281 283 279 279 278 282 286 286 287 288 286 285 285 285 287 287 288 287 285 287 290 291 291 292 292 290 291 291 291 291 292 292 293 292
301 301 300 300 299 299 300 299 298 298 299 302 299 296 291 294 300 301 301 300 298 295 287 284 282 284 293 292 291 292 292 293 294 293 292 291 292 292 291 292 292 293 291 287 287 283 286 286 286 289 291 293 284 283 279 281 279 281 286 286 287 288 288 289 289 286 284 288 289 289 288 289 290 291 292 292 292 292 290 290 291 290 291 291 290 291 292
301 301 300 300 299 300 301 300 298 299 299 300 296 289 287 285 293 301 300 301 301 294 288 287 284 288 287 292 293 290 291 292 292 292 291 292 292 291 293 292 293 291 287 288 287 286 286 283 285 287 290 290 286 282 280 279 278 281 285 286 287 287 287 288 289 290 288 288 289 290 289 289 290 290 290 291 291 291 291 291 292 291 291 291 291 291 291
301 301 300 299 299 301 301 300 300 300 302 298 294 292 292 293 297 301 301 300 299 294 287 284 283 283 284 287 291 293 292 293 293 292 292 292 290 292 292 291 288 292 288 286 287 285 284 286 284 285 285 290 286 282 282 280 278 279 285 285 287 288 289 288 288 288 289 289 289 287 286 287 289 287 286 289 290 290 291 291 291 292 291 292 292 292 292
301 301 300 299 299 300 301 301 300 301 299 298 298 298 298 298 298 300 302 301 298 290 292 286 281 282 282 285 291 292 292 293 291 290 288 292 289 291 288 291 291 291 291 287 285 283 286 285 285 283 288 290 283 282 280 279 281 284 286 287 288 288 287 289 289 288 288 289 289 284 283 285 286 288 289 289 290 289 289 290 290 291 291 291 290 291 291
301 301 300 298 298 300 298 299 299 299 299 299 295 295 298 298 300 298 299 299 294 293 290 285 281 281 281 289 285 289 292 287 287 288 284 291 290 290 286 289 289 285 287 285 286 285 286 285 283 284 286 284 285 281 277 280 284 286 286 287 288 287 288 287 287 287 288 288 289 289 288 288 289 289 289 289 289 291 292 291 291 290 290 290 290 291 291
301 300 299 297 297 299 298 296 298 297 295 295 295 298 299 298 299 299 299 296 288 285 285 285 286 281 281 282 281 286 292 289 284 287 284 287 292 287 288 284 286 283 285 290 285 284 283 284 287 282 280 284 281 277 279 282 284 285 286 286 287 287 286 285 285 287 288 288 288 288 288 289 287 287 287 288 289 290 290 290 291 290 289 290 290 290 290
300 299 298 297 297 299 301 299 297 295 293 292 293 297 297 299 299 301 301 299 294 286 285 284 285 281 281 278 277 284 292 288 289 289 288 287 287 290 288 285 280 284 288 285 281 285 282 287 284 279 283 279 277 279 281 284 284 285 285 285 287 286 285 285 285 287 288 288 288 288 289 289 288 288 288 289 289 289 289 289 289 290 289 288 287 287 287
299 298 297 297 299 298 294 292 296 295 293 295 297 298 298 298 301 301 298 296 297 297 288 285 283 283 283 281 285 287 289 281 287 285 286 283 282 286 285 283 280 283 284 282 282 281 284 289 283 279 279 277 279 285 286 286 285 285 286 287 287 287 287 287 288 287 287 287 287 288 288 288 287 288 287 287 287 288 287 286 286 286 285 285 285 285 285
298 297 297 295 294 288 287 290 293 296 296 296 296 296 295 294 289 290 290 288 292 291 289 288 283 285 289 285 280 289 288 283 288 282 283 286 282 282 285 282 281 282 276 279 282 287 285 283 280 279 279 285 286 286 286 287 287 288 289 288 286 287 287 288 288 286 285 284 285 286 286 286 286 286 286 286 286 286 285 286 286 286 286 285 285 286 286
297 297 296 294 291 287 287 292 298 296 296 298 297 291 287 290 287 284 285 287 287 286 288 286 284 287 285 284 285 292 286 283 283 284 280 286 281 278 283 277 282 281 278 278 280 288 278 280 280 279 278 282 282 284 287 288 289 289 289 288 288 288 289 288 289 287 286 285 285 286 285 284 284 285 286 286 286 286 286 286 286 286 286 286 286 286 286
296 292 289 289 289 290 296 298 296 296 296 290 290 288 283 287 284 280 287 283 283 286 287 283 288 287 288 284 282 283 292 286 280 280 281 283 288 279 281 281 282 279 273 275 279 285 278 275 278 278 277 281 282 286 287 287 287 288 288 288 289 289 289 289 289 290 289 289 288 287 287 287 287 286 285 285 285 284 285 286 286 286 286 285 285 285 284
294 293 292 288 292 294 295 296 298 295 290 286 286 285 283 280 284 285 283 280 280 282 288 286 288 286 288 287 287 283 290 291 289 288 284 280 286 285 280 276 282 276 274 275 281 282 280 277 277 276 277 282 284 286 287 287 287 288 288 289 289 290 289 289 290 290 289 288 287 287 288 288 288 287 286 286 286 285 284 285 285 285 285 285 284 284 285
294 292 294 295 295 295 295 293 291 287 286 287 281 277 280 281 284 283 284 278 279 283 285 285 283 284 284 286 286 287 286 291 288 285 282 279 285 281 278 280 280 274 272 280 282 281 279 274 275 276 281 284 286 287 287 286 287 287 288 289 290 290 290 289 289 289 289 288 287 287 288 288 288 288 288 287 287 286 286 285 285 285 285 285 285 284 284
297 295 295 293 291 289 290 285 287 286 278 278 277 275 279 276 279 279 280 284 286 284 285 290 288 290 290 290 287 289 286 290 284 284 282 279 285 283 279 277 275 272 277 283 280 276 274 274 274 278 283 284 286 286 287 286 286 286 288 290 290 291 290 289 288 288 288 288 288 288 288 288 288 289 290 289 289 288 287 287 286 286 286 285 284 284 284
297 295 290 288 285 286 286 276 285 281 278 279 276 273 276 275 278 280 278 282 284 283 287 283 285 284 281 287 285 285 286 287 287 285 283 284 281 278 276 273 275 281 284 278 277 273 275 277 279 281 283 284 286 286 287 285 284 286 289 290 290 290 290 288 288 288 287 288 289 289 289 289 289 289 289 289 289 288 288 288 288 287 286 286 285 284 285
289 287 287 284 280 284 280 273 284 279 275 277 279 278 278 276 279 281 280 285 285 283 287 287 286 286 283 287 287 286 285 282 287 281 277 280 277 279 275 275 280 280 276 273 275 276 275 275 281 283 283 282 283 284 284 284 286 287 287 288 289 289 288 287 287 287 286 287 287 287 286 287 287 286 286 287 288 289 289 288 288 288 287 286 286 285 285
286 283 282 278 274 279 280 276 277 276 280 281 280 282 282 284 284 283 287 288 285 286 285 286 286 286 283 287 282 281 284 284 281 281 282 281 275 273 280 283 281 275 274 274 272 272 274 278 281 282 283 283 283 284 284 287 289 289 288 287 288 289 288 288 287 288 287 287 287 286 286 286 287 286 286 287 287 288 289 289 289 288 287 286 285 285 286
286 286 284 281 277 280 282 277 279 282 283 283 285 285 285 285 286 286 287 287 285 288 287 288 287 286 282 283 283 283 283 283 279 281 282 276 275 278 281 276 271 273 270 269 271 273 277 281 283 284 283 284 284 284 286 287 289 288 288 289 289 288 287 287 288 288 288 288 287 287 287 288 288 289 289 288 288 289 288 288 288 288 286 285 285 286 286
282 286 284 277 276 280 278 281 285 285 286 285 286 287 287 287 285 285 288 289 288 287 286 286 283 285 283 287 285 281 282 283 278 280 281 278 280 276 274 273 272 275 275 273 274 279 280 282 283 284 284 284 284 284 286 288 289 289 288 288 288 289 288 288 287 288 288 288 287 286 287 289 289 289 289 288 288 288 288 288 288 288 287 286 286 285 285
287 284 280 280 281 281 282 284 284 283 286 287 287 286 286 285 285 286 288 289 287 286 287 285 284 283 280 283 281 280 277 281 275 276 279 277 273 270 270 269 271 270 276 278 278 281 282 284 284 284 284 285 285 285 286 289 289 289 289 289 289 289 289 288 288 288 288 288 288 288 288 289 290 289 289 289 287 287 288 288 288 287 287 286 286 285 285
284 283 284 281 281 283 286 286 284 282 285 285 285 285 286 285 285 287 290 287 288 287 286 287 286 282 281 280 277 278 278 280 278 279 276 273 274 275 273 270 273 273 276 281 282 283 284 285 285 285 285 285 285 285 285 288 288 289 289 290 289 289 290 290 289 289 288 288 289 289 289 290 290 290 289 288 288 288 288 287 287 287 287 287 286 286 285
287 284 283 287 282 283 284 279 280 281 282 283 284 285 285 284 285 286 290 288 287 285 283 280 282 280 279 278 276 272 275 281 278 276 275 275 278 275 273 272 275 279 281 284 284 285 285 286 286 285 285 285 286 286 288 289 290 290 290 290 290 290 290 290 289 288 288 289 290 287 290 290 290 290 290 290 288 287 287 286 287 287 287 287 287 286 285
282 279 281 285 288 287 286 286 285 284 284 285 285 287 287 285 287 288 290 287 286 281 280 283 281 278 276 273 276 280 281 278 275 275 273 277 279 275 275 277 280 282 283 283 284 285 286 286 286 285 284 285 285 286 287 290 290 290 291 291 291 290 290 290 289 290 290 291 291 291 291 291 291 291 290 289 288 287 286 286 286 287 287 287 287 287 286
Wind_Speed
28 29 30 29 28 28 29 29 28 26 25 10 7 6 3 2 3 5 6 6 3 5 7 2 2 6 1 2 2 2 3 2 2 4 2 5 1 3 5 2 5 4 4 4 7 5 5 3 5 1 4 4 5 4 3 1 4 6 2 3 4 1 3 6 9 9 11 5 3 4 2 4 8 8 7 7 10 9 10 11 9 8 7 7 8 9 5
28 29 29 30 29 28 29 30 28 25 20 8 7 5 3 3 3 2 5 5 3 6 6 5 5 4 4 3 3 2 2 2 3 4 2 3 2 3 2 4 1 2 2 4 6 4 5 5 6 5 3 3 5 3 3 1 3 3 2 4 4 4 2 4 6 6 6 8 7 7 4 4 7 9 2 3 6 7 6 8 7 9 13 15 11 13 8
28 28 30 30 30 29 30 30 30 26 20 12 4 5 4 4 1 2 3 5 2 6 3 4 2 3 4 5 6 5 4 4 5 3 2 1 2 3 1 3 1 2 2 3 2 3 6 3 3 3 5 4 4 3 3 2 1 4 6 4 0 4 7 4 6 8 8 8 7 6 5 8 5 2 4 4 6 6 6 9 10 11 10 14 11 11 5
27 29 29 29 29 30 30 30 30 27 21 16 5 4 5 2 1 1 3 4 5 5 0 3 2 2 4 3 1 2 3 4 3 2 3 3 1 3 1 2 2 3 5 6 7 6 4 7 2 6 5 6 4 2 1 3 2 5 5 2 3 4 4 6 8 10 10 8 10 5 7 6 7 7 5 5 4 4 7 8 8 12 10 11 12 13 11
28 28 30 30 30 29 30 31 31 29 23 15 4 2 3 2 2 3 2 1 5 5 4 3 2 0 3 2 1 3 2 2 4 3 2 3 2 2 1 1 4 4 6 5 6 4 4 6 6 5 5 4 4 4 1 2 5 3 1 2 2 5 6 9 12 13 13 13 13 10 7 12 13 13 12 10 8 7 10 9 10 9 9 14 10 12 10
28 28 29 29 30 30 30 31 32 28 25 17 5 4 5 1 2 2 2 3 3 1 3 6 3 3 2 2 1 1 1 2 1 4 3 0 1 3 3 3 2 3 4 4 5 6 7 5 5 4 2 3 6 5 6 4 2 4 2 1 4 6 6 6 7 12 13 12 12 11 9 11 12 13 12 12 11 11 11 10 14 14 10 12 10 10 10
27 28 29 29 30 30 29 31 31 29 26 19 4 3 4 4 2 3 3 2 4 5 4 4 3 4 4 2 1 1 0 2 4 3 2 2 2 3 1 2 2 1 2 5 5 5 6 5 3 4 4 4 3 6 6 5 4 5 3 2 2 4 6 11 11 13 13 14 12 11 13 12 13 14 14 15 15 15 14 14 14 15 16 16 14 15 12
27 27 28 27 29 30 30 30 30 28 26 14 12 10 5 5 5 3 4 1 4 4 2 2 2 1 3 1 4 3 2 2 3 3 5 0 2 2 3 2 2 1 0 2 2 4 5 4 1 3 2 4 5 4 4 1 6 4 1 1 2 2 3 7 8 10 12 13 14 14 13 13 16 16 16 16 15 15 15 15 14 15 16 14 15 11 10
26 26 27 27 28 28 30 29 29 28 28 8 10 8 7 3 3 3 5 0 5 3 3 2 2 1 3 1 3 2 4 4 4 7 6 6 4 5 4 4 1 1 3 6 7 5 4 3 4 3 3 3 3 4 2 2 3 3 3 3 2 3 8 5 6 9 11 11 13 14 14 16 18 17 17 17 15 13 13 11 10 10 10 13 13 13 10
25 26 26 27 27 28 28 28 28 28 24 8 7 8 7 3 2 3 4 1 3 4 1 1 4 2 5 5 5 3 5 3 0 2 3 5 7 6 6 3 3 3 2 6 7 6 5 4 5 4 4 3 3 3 3 3 5 3 3 1 6 5 5 5 7 11 10 10 8 9 9 10 13 13 15 15 17 18 16 15 13 13 12 11 12 12 9
23 23 24 25 26 27 27 27 26 26 16 11 9 7 8 7 5 4 3 1 2 4 2 4 4 4 3 4 2 3 4 4 2 3 2 2 6 6 6 4 3 1 5 6 6 5 6 5 5 3 4 5 6 4 5 6 6 7 6 4 4 5 7 7 7 8 8 5 3 4 6 11 8 5 7 1 7 8 12 11 13 13 12 10 9 10 4
23 22 22 23 23 25 25 26 26 24 19 9 6 6 6 6 5 4 3 2 3 3 3 5 5 4 4 4 2 4 5 6 5 6 4 4 5 5 6 4 4 1 6 6 6 5 3 3 5 5 6 7 8 8 9 10 9 7 7 7 6 5 5 6 6 7 8 7 3 6 10 10 4 2 4 2 3 5 8 11 7 6 6 9 11 11 12
23 22 22 22 22 24 23 24 25 23 21 10 8 8 8 7 5 5 3 3 3 5 2 4 2 3 3 3 2 4 4 3 4 3 3 3 3 5 6 5 5 5 9 8 8 6 5 5 6 7 8 8 9 11 12 12 12 9 7 8 8 6 7 6 6 6 6 5 6 7 7 6 3 4 2 2 3 3 5 4 3 3 4 4 4 4 4
21 22 22 22 22 23 23 23 22 20 21 15 8 8 8 10 7 5 3 3 2 3 2 2 3 4 4 4 4 2 1 2 2 2 1 4 3 4 4 5 6 5 5 5 6 5 5 5 6 7 8 8 8 9 11 10 8 8 9 9 8 10 8 7 8 6 9 8 9 11 10 11 12 9 2 5 2 3 4 7 1 4 4 4 4 2 3
21 21 21 21 22 21 22 22 22 20 18 17 6 7 8 9 7 5 4 4 2 2 2 2 4 4 3 3 5 3 1 1 2 2 4 2 2 4 4 6 5 4 3 5 4 4 4 4 6 6 7 8 8 7 3 6 4 3 3 4 6 7 7 4 7 6 7 9 11 9 9 10 0 6 5 3 1 3 4 3 6 6 4 4 4 4 3
19 20 20 20 20 21 22 21 21 20 16 16 6 6 7 9 7 5 5 3 3 1 4 5 4 4 3 3 4 4 2 1 2 2 3 3 4 3 3 4 3 4 4 5 4 4 3 5 6 7 7 7 7 4 5 5 5 5 3 4 5 3 5 6 7 8 6 7 9 9 10 7 6 3 4 3 3 3 5 3 7 6 6 6 6 4 5
20 20 20 20 20 20 19 19 20 20 14 15 9 6 6 10 8 7 5 3 2 3 3 3 3 4 4 2 3 1 4 2 5 2 1 2 5 4 4 4 1 2 3 4 4 4 5 6 7 8 7 5 6 6 7 5 7 5 6 6 6 6 6 6 9 9 9 9 9 10 6 6 3 5 5 6 4 3 2 4 4 4 8 7 7 6 7
18 19 19 19 19 19 19 18 19 19 15 14 9 5 5 8 9 8 4 3 2 2 4 5 6 2 4 5 4 3 2 2 2 1 2 2 2 5 5 5 2 4 3 4 2 4 5 5 6 5 6 3 2 3 6 2 5 6 6 5 6 6 6 6 9 9 9 10 9 8 8 1 6 5 6 5 4 4 7 11 4 7 9 9 9 9 8
18 18 18 19 18 18 18 19 19 19 16 13 11 3 5 8 9 8 4 2 3 1 4 3 3 5 4 2 2 3 4 5 4 3 0 1 3 5 4 2 4 1 3 1 2 2 3 4 3 5 5 3 4 4 3 3 5 2 4 8 8 7 6 7 7 9 10 10 10 10 5 4 3 7 5 2 3 6 8 6 4 7 10 8 9 10 9
18 17 17 18 18 18 18 17 18 18 17 12 10 6 4 5 8 8 6 4 3 3 4 3 3 6 5 5 3 1 1 3 2 3 2 2 4 4 4 3 3 3 1 1 1 1 3 3 1 2 4 5 1 3 4 6 2 6 5 3 4 5 5 5 6 5 5 6 9 7 10 4 7 10 2 4 2 3 5 8 8 9 8 10 8 7 9
18 17 17 17 17 18 18 18 18 17 17 15 11 7 5 5 7 7 4 4 4 1 3 2 2 4 4 4 5 4 5 6 5 4 4 3 5 5 1 3 4 3 4 3 2 2 2 1 0 1 2 3 1 1 3 2 4 3 2 6 5 2 4 6 7 5 8 8 8 5 3 2 2 6 4 3 6 8 9 10 12 9 9 8 7 7 7
16 17 17 17 17 17 17 17 17 17 16 15 13 5 5 6 5 5 3 3 2 2 4 3 3 3 3 2 3 4 5 5 5 4 6 2 3 4 3 2 3 3 3 4 0 1 2 0 2 2 3 3 2 5 3 4 6 3 3 3 5 1 5 4 6 1 3 5 7 8 7 8 6 7 8 9 9 9 9 10 10 11 9 10 10 10 9
17 16 16 17 17 16 17 16 17 16 16 14 11 6 6 7 7 5 3 1 2 0 1 2 2 3 3 2 1 3 3 3 3 3 3 6 1 2 2 2 2 3 1 2 3 3 3 3 2 3 4 3 2 4 4 6 5 3 4 2 7 4 3 5 7 8 10 12 13 12 12 11 11 10 10 10 10 9 8 10 10 10 11 11 12 12 12
16 16 16 16 16 17 15 15 15 15 15 13 9 6 5 5 6 7 2 2 1 2 3 2 3 2 3 3 3 1 3 3 2 3 3 3 5 1 4 3 4 2 0 4 3 4 2 2 3 3 4 2 1 4 5 4 3 4 4 7 6 5 2 5 6 8 9 7 2 4 8 11 13 13 13 12 10 10 9 11 11 12 13 13 12 13 13
17 17 16 16 17 17 16 15 14 13 13 11 9 2 2 4 6 6 7 3 1 2 1 3 4 3 3 3 2 3 1 4 3 4 4 5 6 6 5 5 5 5 5 3 1 4 2 2 2 3 3 1 1 3 2 1 3 3 4 6 5 1 8 6 9 9 8 10 12 14 14 14 13 12 12 12 10 11 12 13 14 15 15 14 14 15 15
17 17 17 17 18 18 15 14 13 11 11 11 8 4 4 5 5 4 3 2 2 2 1 2 4 2 1 2 2 5 5 5 4 5 6 7 7 7 6 3 3 1 3 2 2 4 3 3 2 4 4 1 1 4 4 1 6 6 8 7 6 8 7 7 7 8 10 13 14 13 13 14 14 13 12 11 12 13 15 16 16 16 16 17 17 16 16
18 18 18 18 18 17 15 13 11 9 9 8 4 2 2 3 4 6 7 6 4 2 0 3 3 3 1 3 4 4 3 4 3 3 3 5 6 5 5 6 6 5 4 3 3 3 3 4 3 5 3 2 1 6 6 5 5 5 7 8 6 5 7 6 7 9 9 9 9 11 12 11 11 14 15 16 16 17 18 18 18 18 19 17 17 18 18
19 20 20 19 19 17 15 12 9 8 7 6 3 0 0 2 4 4 6 7 7 4 2 0 2 4 1 2 3 3 3 3 3 1 3 2 2 4 5 5 5 5 3 4 3 3 4 5 5 1 4 3 3 4 2 3 4 7 7 6 4 6 8 6 8 8 9 11 14 13 14 17 16 16 17 18 18 17 18 17 17 17 17 17 18 18 18
20 20 21 21 20 17 14 10 7 5 5 6 2 2 2 2 2 4 6 5 5 4 2 0 2 3 0 5 5 2 3 3 3 2 1 1 1 1 3 3 5 3 3 3 4 4 4 4 2 4 2 2 3 5 2 6 5 6 6 5 4 5 6 8 10 12 14 14 13 14 14 15 17 18 18 18 16 16 17 16 16 16 17 17 18 17 17
20 21 21 20 19 17 13 8 3 1 3 3 3 3 1 4 1 5 6 5 6 4 2 1 1 3 0 1 4 6 5 5 4 3 2 2 2 2 2 2 3 3 3 3 2 5 2 4 2 2 1 2 4 3 5 5 6 7 6 4 5 6 7 8 9 11 14 15 15 15 16 18 17 18 17 16 15 14 15 16 16 16 16 16 17 16 15
21 21 22 20 19 16 13 5 1 3 5 3 3 1 3 2 4 4 7 5 4 4 1 2 2 1 1 2 2 7 8 5 5 4 3 3 1 2 1 3 1 2 3 2 4 2 2 4 3 0 2 3 3 3 5 5 7 8 6 7 8 9 10 12 11 12 14 15 16 15 15 15 15 15 16 14 14 15 16 17 17 15 14 14 16 16 15
21 22 22 19 17 16 11 2 6 5 2 1 3 5 4 4 6 8 7 4 3 4 2 1 2 1 1 2 2 3 6 5 4 4 1 4 3 3 0 3 1 1 2 3 2 2 2 1 2 3 4 3 3 4 5 6 7 7 10 11 10 12 12 14 14 14 13 13 14 14 13 12 12 13 14 16 17 16 16 16 15 14 13 13 13 13 13
21 22 20 17 15 11 10 5 2 2 5 7 10 11 8 7 6 6 1 2 3 1 2 2 2 1 2 4 0 3 7 4 1 6 2 4 5 4 0 1 2 2 2 3 2 1 1 1 1 3 2 1 3 3 4 6 6 8 11 12 13 14 15 14 13 12 11 10 8 10 12 13 14 15 16 16 16 15 14 14 14 13 12 13 14 13 12
21 20 17 15 12 6 6 5 4 7 6 4 1 3 6 12 5 5 6 4 1 1 1 1 1 1 1 2 2 6 6 6 4 6 3 4 5 4 2 2 1 1 2 4 1 2 2 2 2 1 1 1 1 3 5 4 9 12 13 14 13 13 11 11 10 9 9 10 10 10 12 13 13 12 13 13 13 12 12 12 12 13 13 12 12 11 11
20 20 17 14 8 3 2 4 4 3 2 2 1 3 7 12 11 7 5 4 2 0 0 0 1 2 1 0 1 5 5 5 5 5 4 4 2 5 3 2 1 2 2 2 3 1 1 1 4 3 1 1 2 3 4 9 14 14 14 12 11 10 10 10 7 11 12 11 11 11 12 11 11 11 11 13 13 13 13 12 12 12 12 10 8 8 8
20 20 17 12 4 4 4 6 1 1 1 2 5 7 12 10 6 2 2 2 3 2 0 1 2 2 3 4 4 3 4 2 3 3 2 3 1 2 3 2 2 3 2 2 1 1 1 3 2 2 1 1 2 3 6 11 14 14 13 10 9 8 8 9 11 12 12 12 12 12 11 11 11 12 11 11 11 10 10 9 9 8 8 8 8 7 7
19 19 17 9 4 3 1 1 1 2 4 6 10 14 15 9 2 3 3 2 2 2 2 1 1 3 4 3 1 1 4 3 5 4 4 4 4 1 3 2 2 2 2 2 1 0 2 1 3 2 2 2 3 6 9 10 11 12 11 10 9 8 8 9 10 12 13 12 11 9 9 11 11 10 11 10 8 7 8 9 9 9 9 9 8 7 7
18 17 6 1 2 1 0 1 1 4 9 9 7 5 3 4 1 1 1 1 1 2 1 2 1 1 1 3 3 4 5 4 4 4 2 2 4 1 1 2 2 3 2 1 1 3 3 2 2 2 2 2 3 6 8 10 10 6 6 6 6 8 8 9 8 10 12 12 11 11 12 12 11 11 9 7 7 8 8 8 8 8 8 8 8 8 8
13 5 2 2 2 2 2 4 5 9 6 3 3 2 1 0 1 1 0 0 1 2 1 2 2 2 2 4 3 4 4 5 6 4 5 4 3 1 1 4 1 2 2 2 3 2 4 1 1 3 2 1 4 6 10 10 9 6 5 4 6 7 8 9 9 9 9 9 10 11 10 9 9 8 6 6 6 8 8 8 9 10 10 10 10 10 11
6 5 3 3 2 4 4 3 3 3 3 2 1 2 1 1 2 0 0 2 2 1 1 1 3 2 3 4 6 4 3 5 6 6 6 3 3 4 2 2 2 3 2 3 2 2 3 3 1 3 2 3 6 9 10 8 10 8 6 7 8 8 8 8 8 7 7 8 8 8 5 5 6 6 6 7 7 7 8 8 8 10 10 11 11 11 12
7 7 4 3 6 4 4 6 4 3 1 1 1 1 1 2 1 1 1 2 1 1 1 4 1 2 3 2 2 5 3 1 1 2 3 3 1 3 3 3 1 3 3 2 1 2 2 4 3 4 3 5 8 9 9 10 9 9 6 8 8 7 7 8 8 8 8 7 6 5 5 6 7 8 8 7 7 6 6 7 8 9 10 10 11 11 10
8 7 7 7 7 6 5 3 2 1 0 1 1 1 1 1 0 2 1 3 1 1 2 1 3 4 4 3 5 5 2 2 2 2 2 3 1 3 3 1 0 3 3 2 2 3 2 4 4 3 2 7 9 8 9 10 10 10 9 8 6 6 7 7 8 7 7 6 4 5 6 8 9 8 7 7 7 7 6 7 7 9 9 9 9 8 9
8 5 3 4 2 2 1 2 1 1 1 1 1 1 1 2 1 2 0 0 1 2 1 2 1 3 2 2 4 4 2 1 2 1 3 3 1 1 3 2 1 4 1 2 3 2 4 4 5 3 3 7 8 8 8 7 6 6 8 7 7 6 6 6 6 5 6 5 5 5 6 8 8 8 7 7 8 8 8 8 8 8 8 7 7 7 7
3 3 2 1 2 0 1 1 1 1 1 1 2 2 2 3 3 3 2 1 0 3 1 5 5 6 5 0 3 2 1 3 2 2 2 0 2 2 1 3 3 1 1 4 3 4 3 3 4 3 3 5 6 7 7 5 5 6 7 7 8 7 5 4 5 5 5 4 5 5 6 7 7 6 6 6 7 7 7 7 7 7 7 7 6 7 6
4 1 1 1 1 0 1 1 1 2 3 2 2 2 1 3 2 2 4 2 1 6 6 6 7 6 7 3 2 2 1 2 2 3 2 1 4 3 3 4 2 2 3 5 3 3 2 4 2 1 3 4 4 4 4 4 4 5 5 7 6 5 4 4 4 4 4 5 4 4 5 4 5 5 5 4 4 6 6 6 6 6 6 6 5 5 6
2 3 3 2 2 1 1 2 1 3 2 1 2 3 3 4 4 5 3 2 5 6 7 7 7 6 8 4 4 2 1 3 5 2 1 2 4 4 2 1 1 5 3 4 4 4 3 2 2 2 3 3 4 3 3 4 7 5 4 5 5 5 4 3 4 5 5 3 3 4 4 3 4 4 4 3 4 4 6 6 6 6 5 6 6 6 5
1 0 1 1 3 2 1 2 2 1 1 2 1 2 3 4 4 4 4 3 6 6 6 5 6 5 6 4 3 3 3 1 4 1 1 5 4 1 0 3 4 3 4 4 5 4 3 1 1 2 2 2 2 3 3 3 6 5 4 3 3 3 1 2 3 4 4 4 4 3 3 3 2 3 4 5 5 4 5 6 7 6 6 6 6 6 6
4 1 1 2 2 1 3 2 1 2 3 3 2 1 2 2 4 5 4 3 5 4 5 5 5 3 4 2 3 6 4 2 4 5 3 4 2 4 3 3 4 3 3 4 5 3 2 2 2 2 3 2 2 3 4 4 6 5 3 2 2 1 3 3 3 3 4 4 4 2 4 3 3 3 4 4 4 4 5 5 5 6 6 6 6 7 7
2 2 3 3 2 1 2 1 3 6 5 4 3 3 4 6 6 6 5 4 4 5 3 4 4 3 5 1 4 4 6 2 4 3 2 3 3 3 3 4 4 6 4 5 5 4 4 3 2 1 1 2 2 2 3 4 4 5 4 2 2 2 2 4 4 5 4 4 4 4 3 3 2 3 4 3 4 4 4 5 6 6 6 6 7 7 7
3 3 2 3 4 5 4 4 5 6 6 4 4 4 3 5 6 5 1 4 4 4 3 4 1 3 3 2 5 4 5 3 5 3 5 6 5 3 3 7 6 5 5 3 3 3 3 3 3 3 2 2 3 3 3 3 2 4 3 3 2 3 3 4 5 6 6 5 6 5 5 4 3 3 4 4 4 3 4 4 4 5 5 5 6 6 7
1 3 3 4 6 5 3 5 5 6 5 5 5 5 5 6 5 5 1 4 3 4 4 6 3 3 4 3 2 4 3 1 4 6 6 6 4 5 7 8 7 6 5 4 4 4 4 4 4 4 3 2 3 3 4 4 4 4 3 4 4 4 4 5 6 7 7 7 7 7 6 5 5 4 3 3 4 3 4 3 3 4 4 5 5 5 6
2 3 4 4 6 8 7 8 7 8 8 8 8 7 6 7 5 4 1 4 5 5 6 3 3 4 3 5 5 4 1 2 4 2 5 6 4 6 7 7 7 6 6 6 5 4 4 4 3 2 3 4 4 4 4 5 5 5 3 5 5 5 5 6 7 7 7 8 8 8 7 6 5 4 4 4 4 3 2 3 2 2 3 3 4 4 5
Wind_Direction
6 5 3 1 359 356 351 349 348 350 345 348 356 308 256 278 321 67 2 16 230 216 244 157 205 233 46 100 168 118 200 261 92 231 148 222 187 208 225 193 222 208 270 211 245 225 248 236 256 60 216 105 64 70 3 265 225 260 211 184 133 154 250 250 248 255 260 253 125 117 156 250 252 236 254 261 254 274 271 277 297 292 263 242 255 246 249
7 6 4 2 360 357 353 349 347 349 357 332 305 284 336 315 309 145 37 353 242 229 233 229 218 210 120 224 120 61 33 253 190 223 89 316 177 256 188 168 272 45 198 228 246 179 253 177 243 204 203 156 76 57 16 248 245 278 28 305 86 264 193 260 276 264 250 223 196 205 160 230 247 258 226 303 293 284 287 301 275 263 260 264 262 264 261
8 7 5 3 2 359 355 350 345 347 348 346 292 321 329 277 180 283 19 20 253 241 356 291 271 173 170 192 183 168 167 49 16 333 47 3 6 257 198 17 70 198 166 227 222 192 255 268 160 349 191 113 131 75 21 328 130 51 30 338 257 242 274 252 257 259 253 249 246 252 227 222 211 252 271 249 269 262 257 251 247 254 254 263 257 257 277
9 8 6 5 3 1 358 352 346 343 346 342 271 315 270 339 252 109 113 27 83 85 63 10 298 160 169 188 93 250 185 134 64 326 86 12 67 360 19 144 246 211 192 210 222 207 189 248 200 200 194 151 142 92 78 43 59 64 45 346 239 271 265 259 261 267 266 279 284 57 332 301 259 255 235 239 234 276 272 278 267 256 261 247 241 258 268
10 10 8 7 6 3 360 355 347 343 339 347 311 320 335 338 2 359 12 14 78 83 46 49 334 217 349 235 44 193 233 99 131 358 235 72 350 99 347 264 223 207 225 229 226 216 205 202 242 226 222 155 113 123 211 126 65 349 228 39 251 246 260 244 248 255 267 278 283 295 318 289 286 280 272 270 258 246 251 251 258 287 280 263 255 264 256
12 11 10 9 8 7 3 358 350 342 340 328 286 9 353 1 49 332 30 309 35 308 66 4 54 63 254 72 316 36 213 192 170 121 66 85 19 272 162 214 228 249 248 216 232 199 223 204 212 155 222 169 169 183 176 202 84 265 178 250 269 274 263 271 265 262 266 269 271 274 271 268 272 274 276 272 266 254 246 248 255 264 256 265 291 290 265
14 12 12 11 10 9 7 2 353 344 338 326 355 34 53 39 49 58 326 281 58 11 356 334 349 54 14 95 348 106 322 95 58 10 355 173 87 316 199 188 84 155 223 235 239 192 215 203 177 228 182 219 194 213 158 184 179 200 190 97 24 288 254 269 262 271 270 270 262 261 259 260 258 256 259 259 259 259 257 257 254 254 255 260 267 273 269
15 14 13 12 11 10 10 7 358 347 336 335 60 30 360 36 344 37 340 47 49 21 357 334 266 103 9 244 44 30 39 82 114 67 5 58 65 345 225 120 97 78 173 241 230 54 17 28 144 110 256 171 225 260 294 84 168 240 272 340 104 268 290 73 277 276 271 268 268 261 254 256 260 258 257 256 255 257 253 257 259 261 265 267 271 269 262
15 15 15 14 13 11 12 11 5 353 341 45 39 54 25 5 7 325 307 71 17 336 16 350 342 155 49 39 69 59 47 81 55 78 32 33 31 16 20 19 129 103 92 84 72 40 11 357 18 340 313 295 53 284 100 319 265 223 269 220 166 206 276 264 270 272 269 266 264 262 265 267 264 260 253 251 251 250 249 251 249 248 254 262 261 257 261
15 16 15 15 15 14 13 14 10 0 345 33 22 39 360 308 169 255 286 358 9 334 21 25 251 92 44 14 38 22 58 45 26 100 63 57 42 23 359 16 298 125 137 62 31 360 333 333 330 334 316 307 301 283 307 306 296 292 271 28 277 255 272 265 266 267 272 283 274 272 289 287 269 255 244 241 245 253 259 258 252 243 247 253 253 260 291
15 15 15 15 15 15 16 16 17 7 4 27 23 25 8 10 349 322 276 284 82 6 326 49 20 54 353 37 63 72 51 54 45 308 119 39 48 13 5 7 317 319 55 21 351 315 301 297 302 290 270 271 267 265 265 257 249 267 274 262 251 263 260 266 266 262 272 270 263 287 273 256 267 50 36 338 281 284 271 263 257 257 254 263 278 283 311
14 14 15 15 15 15 16 17 18 16 8 12 7 39 16 338 288 276 311 327 65 356 39 47 27 54 29 42 23 37 41 39 34 9 52 62 38 21 8 22 322 153 25 329 321 306 255 239 233 236 255 253 257 257 255 256 253 232 243 251 262 246 253 258 261 263 266 271 259 263 250 259 80 102 68 21 311 297 283 282 293 323 317 307 295 287 279
14 14 14 13 14 15 16 16 17 18 9 360 14 25 9 347 310 337 330 327 45 8 22 78 57 43 19 9 57 58 47 44 69 61 47 16 56 46 38 20 7 5 341 332 326 295 255 262 248 254 252 252 249 251 249 245 247 234 239 238 241 244 239 253 255 253 263 252 241 252 253 48 35 75 73 30 249 263 272 256 89 30 21 336 312 326 340
13 13 13 13 13 14 15 15 15 19 11 358 13 19 11 3 356 357 2 330 76 51 8 137 122 57 24 37 356 348 113 70 80 33 84 45 7 27 38 15 0 327 316 308 282 276 272 233 259 246 244 233 244 247 245 244 248 238 228 229 230 247 254 249 257 234 250 254 257 258 288 282 267 250 60 351 333 335 321 279 177 59 39 12 12 11 359
12 11 12 13 13 14 14 14 14 15 14 356 1 14 18 10 1 343 334 300 22 99 344 15 25 9 354 12 356 300 168 12 254 117 83 112 27 18 359 350 350 340 317 291 262 233 248 280 261 253 256 249 245 251 194 233 144 233 220 227 214 220 238 236 242 247 241 261 267 265 255 259 290 81 81 70 332 339 289 293 248 102 59 28 12 19 44
11 10 10 10 11 13 14 14 14 12 18 355 359 10 28 6 341 314 319 339 316 217 64 32 349 327 325 31 9 347 357 323 6 240 171 120 48 32 47 357 1 317 289 250 262 269 253 231 242 253 256 255 251 282 263 242 220 149 193 184 199 208 249 260 250 260 244 247 260 262 269 275 61 80 47 18 18 292 276 250 245 68 15 27 2 345 3
9 9 9 10 9 9 7 7 8 11 17 3 358 5 25 7 356 345 327 308 286 53 71 23 345 285 275 160 187 87 8 9 359 335 298 47 21 1 22 4 207 287 327 263 230 228 218 221 246 254 254 249 245 241 263 256 246 203 166 205 201 209 221 223 238 243 253 261 256 262 260 283 70 40 28 27 15 58 250 262 246 12 358 345 354 334 348
6 7 7 8 8 8 8 6 6 6 13 360 350 358 16 6 354 329 290 325 333 98 71 20 343 334 26 13 352 25 294 247 214 196 298 51 8 16 0 358 332 129 303 263 237 231 248 253 249 248 258 69 321 306 259 336 235 247 245 230 222 212 226 229 248 255 252 245 258 270 267 100 74 32 15 25 342 298 252 259 20 333 335 333 340 320 325
3 3 3 4 5 5 5 4 5 7 9 7 347 11 38 10 355 343 307 302 320 64 63 44 3 32 19 321 339 346 1 344 320 299 274 194 43 358 311 39 324 11 4 287 253 251 255 239 256 270 265 202 186 247 272 231 249 250 261 256 250 242 243 257 258 258 258 259 260 255 270 77 17 36 346 22 267 243 257 34 288 312 317 330 320 315 310
359 0 1 1 1 2 1 0 360 4 3 15 353 18 22 14 12 359 349 360 339 49 79 90 15 35 16 346 8 358 136 186 2 318 9 19 32 315 217 189 129 307 93 14 171 351 266 256 266 289 256 257 310 352 277 242 267 271 280 292 281 282 274 261 254 255 260 253 260 262 259 88 15 3 316 33 270 310 354 294 310 299 311 317 314 313 310
358 357 358 360 358 359 359 356 359 1 0 9 354 4 24 45 9 7 344 320 318 272 112 120 322 351 359 15 14 8 354 6 358 345 40 20 355 302 348 51 8 9 26 4 12 53 354 284 277 274 310 312 254 194 262 317 271 233 285 270 269 318 283 265 261 258 266 261 247 255 5 58 354 354 303 332 303 311 311 309 296 310 304 301 312 307 310
358 359 358 357 356 356 356 352 354 358 357 4 343 340 7 23 11 5 343 293 298 14 27 17 339 315 339 349 356 346 344 345 359 337 324 357 47 14 51 8 33 13 35 311 187 173 182 260 278 272 265 245 221 257 299 268 262 172 150 248 271 163 284 320 285 308 265 273 291 316 314 309 316 302 310 294 295 295 300 297 293 294 296 301 293 296 307
360 358 356 353 353 353 353 351 351 353 354 0 347 358 359 354 3 360 295 284 149 175 232 173 182 170 179 160 349 345 331 341 305 293 307 310 318 112 349 356 84 38 8 350 357 6 342 327 310 321 295 280 301 284 261 257 272 280 269 217 278 302 293 292 274 271 274 277 275 281 283 284 292 301 290 295 293 292 289 292 295 292 292 294 294 300 295
359 357 353 347 345 347 350 350 348 348 349 354 348 350 6 5 345 332 263 244 308 124 137 177 208 72 20 10 358 270 239 221 265 308 328 301 305 334 128 75 20 219 102 32 350 331 349 310 330 330 279 299 283 260 273 253 241 299 294 272 252 254 290 275 271 285 292 274 210 249 282 296 294 294 296 292 287 282 284 287 289 293 291 289 293 294 295
355 352 349 348 345 343 342 344 344 343 341 351 337 282 275 20 10 353 0 8 359 304 78 113 67 43 5 338 294 250 4 342 287 254 244 238 254 293 342 52 9 341 3 20 277 266 239 267 232 212 241 334 314 286 60 285 291 85 272 278 286 248 74 293 273 277 266 276 288 289 290 285 291 294 292 288 291 295 293 290 289 290 289 286 286 287 284
349 347 346 344 340 337 335 336 337 336 335 345 328 351 23 29 351 327 340 1 299 297 322 60 84 124 293 211 68 9 334 308 297 276 256 254 262 274 294 273 248 209 291 298 284 266 281 264 262 285 284 329 322 277 269 276 288 286 281 289 315 324 323 286 309 291 286 284 278 282 293 293 289 288 285 292 298 301 302 302 298 290 286 285 283 277 278
346 343 343 344 342 336 333 334 332 329 330 331 315 14 18 67 20 16 15 354 321 193 322 76 77 104 57 57 49 333 351 333 322 283 250 231 238 235 240 254 267 264 255 244 226 268 245 262 270 271 258 294 266 285 298 271 265 272 269 274 284 279 271 296 295 279 277 288 303 317 302 298 300 297 298 297 299 300 298 298 294 294 292 288 286 284 281
342 343 343 344 341 336 333 330 327 322 321 309 271 23 15 42 52 21 11 360 351 4 344 117 114 76 324 126 25 349 20 9 9 18 81 86 203 232 239 246 257 264 251 248 238 233 251 256 265 280 275 280 273 259 240 272 281 272 265 283 335 283 303 307 287 292 289 303 304 302 295 289 284 291 298 301 302 301 300 299 299 298 298 299 296 291 286
340 342 344 345 341 337 333 325 320 313 305 282 247 217 185 109 53 41 13 359 344 325 297 269 220 226 239 42 331 14 53 25 38 26 43 86 81 212 244 246 257 273 263 251 271 290 283 283 314 291 333 81 255 288 310 276 265 271 295 346 317 319 306 286 294 296 286 288 294 301 296 292 297 301 301 300 302 301 297 297 299 300 301 300 298 295 289
340 341 345 345 343 341 334 328 295 271 258 254 211 235 255 146 99 14 14 349 349 321 300 283 160 80 155 262 14 20 16 19 33 33 15 357 9 350 350 257 232 236 261 278 308 275 297 294 298 286 170 178 273 307 279 291 286 288 304 332 310 296 288 296 299 300 300 308 303 301 299 296 296 297 298 297 297 298 299 300 302 302 298 294 291 289 286
339 341 346 345 344 344 343 2 149 172 222 235 248 317 333 30 65 18 8 340 342 308 321 280 52 109 175 100 314 4 359 356 6 359 18 351 4 4 23 268 232 236 252 226 227 277 306 263 284 166 130 239 283 269 286 289 289 288 330 343 313 311 307 307 307 301 302 303 302 299 295 292 293 292 290 299 310 311 305 300 302 299 297 296 290 286 281
337 340 345 346 346 350 359 66 136 192 223 0 8 13 27 3 337 320 321 296 298 269 308 283 172 178 38 152 80 359 335 338 299 302 119 353 359 357 201 332 359 0 311 301 339 269 246 357 291 294 287 119 211 284 281 279 288 302 327 317 320 312 312 307 309 310 308 301 299 296 289 290 297 305 309 311 306 303 297 296 298 298 296 293 294 288 284
334 337 342 345 346 2 26 71 131 297 88 93 112 121 98 16 351 330 108 265 242 0 303 311 16 30 257 57 35 49 337 279 190 343 39 31 2 320 96 90 171 157 91 257 216 283 52 268 275 266 87 199 258 274 286 295 315 320 317 320 318 319 317 319 314 306 300 300 310 301 299 302 305 305 302 302 302 302 297 292 292 295 295 292 293 295 295
331 332 338 341 340 347 20 36 69 104 139 185 183 33 30 7 347 17 321 284 306 313 283 324 257 235 69 151 232 74 347 347 12 1 340 71 356 296 7 251 146 200 53 312 23 259 184 239 263 308 159 218 271 286 283 322 334 325 325 325 328 329 328 317 313 313 315 310 311 299 296 297 297 295 294 298 305 309 309 308 307 302 298 296 295 298 305
327 328 334 333 332 305 334 290 227 225 338 76 9 53 2 345 331 311 301 323 292 177 298 97 293 320 12 74 2 64 359 305 4 7 333 21 25 355 344 304 181 251 93 308 251 291 307 2 351 260 249 121 233 286 309 330 327 328 327 327 336 334 325 321 318 316 310 310 304 301 300 295 291 295 302 306 311 315 315 311 307 300 293 302 329 352 0
326 325 326 327 303 251 216 221 323 285 196 357 346 348 334 317 305 304 335 356 329 328 291 50 283 32 340 354 3 43 316 304 16 317 56 310 206 88 317 313 282 87 346 284 295 212 247 46 279 260 131 226 323 337 343 332 329 327 326 328 331 329 321 313 309 312 313 310 307 304 299 301 307 314 315 319 329 333 335 341 355 2 6 15 17 6 4
324 321 312 283 240 221 254 28 57 29 10 320 309 307 295 288 205 223 215 222 122 321 320 310 278 41 355 2 291 50 312 354 358 335 20 1 349 350 328 295 12 9 246 206 207 278 45 298 280 286 275 310 1 3 347 339 332 324 322 325 322 314 307 303 308 314 313 316 315 313 319 319 321 335 336 339 355 356 2 13 15 15 21 17 14 13 5
318 306 302 310 243 241 233 139 41 3 318 292 275 255 171 213 226 171 192 215 68 291 186 258 304 52 193 289 344 42 296 356 345 344 352 43 311 50 338 290 38 314 317 355 64 4 308 253 250 283 318 55 12 356 345 338 339 324 317 324 318 305 302 298 301 304 316 323 328 334 332 327 329 335 342 10 25 19 25 23 26 29 30 27 22 17 20
297 299 322 350 311 19 342 6 6 324 295 238 238 251 195 167 238 210 171 18 220 203 108 275 347 13 312 308 347 93 353 338 327 355 338 47 333 352 12 323 88 284 274 230 132 314 278 235 240 281 283 354 340 356 345 345 346 341 345 325 308 298 307 308 311 311 320 327 325 326 327 321 326 348 21 26 38 40 38 38 38 41 39 36 30 30 30
356 351 353 323 3 1 338 321 291 285 236 225 179 274 260 179 264 147 122 239 186 127 229 268 33 343 336 331 332 333 103 317 343 341 343 333 107 323 15 293 38 289 274 287 80 358 295 288 247 267 283 352 354 357 346 350 344 344 339 322 310 311 312 306 311 323 333 335 340 342 355 25 46 41 42 50 51 48 44 42 41 41 39 38 33 31 26
355 339 323 338 344 329 327 319 299 239 249 223 198 202 246 200 86 9 268 252 239 90 22 326 239 240 144 257 250 301 85 233 277 310 284 310 63 274 295 328 33 286 270 275 72 291 277 270 266 275 339 354 356 353 341 347 345 338 329 318 313 316 312 320 332 342 344 355 10 40 52 63 67 66 62 63 64 56 41 41 40 35 33 33 32 30 24
331 311 301 298 298 288 286 242 239 228 188 263 273 231 10 310 184 210 239 296 26 338 175 262 294 326 343 321 314 312 304 64 310 277 302 312 85 306 328 314 223 279 297 39 330 264 268 277 279 292 354 358 2 347 344 343 338 333 319 323 331 330 334 338 340 356 9 26 54 62 70 76 76 75 75 72 67 61 53 51 49 43 40 35 33 31 27
284 265 286 285 264 236 262 229 144 274 233 203 206 223 188 234 224 303 261 171 106 267 26 201 275 292 241 196 246 192 328 71 292 290 282 318 113 230 293 307 245 252 298 359 278 291 269 265 270 291 358 1 354 346 346 348 330 317 314 325 338 343 350 356 356 18 36 54 73 81 86 83 82 81 78 77 76 72 65 58 53 51 47 46 42 33 23
263 272 241 239 260 185 255 241 148 235 234 216 216 232 195 240 205 179 251 275 179 274 348 316 324 322 312 135 309 317 212 194 200 274 283 291 280 286 268 261 260 9 332 260 255 269 287 301 292 314 347 351 346 347 350 333 310 316 324 335 344 350 15 32 28 44 66 73 73 75 80 85 82 69 56 50 56 64 64 62 57 56 55 51 44 33 15
302 266 288 262 248 216 222 294 189 216 247 183 223 259 203 273 313 283 295 45 298 298 314 292 294 292 288 314 254 238 299 309 127 269 295 300 283 276 259 289 345 294 285 291 271 256 242 250 217 289 10 348 334 332 337 308 298 320 328 328 338 359 27 40 64 65 66 66 72 72 72 67 68 59 53 47 47 54 57 57 58 58 58 55 48 40 26
354 349 326 314 309 273 249 242 161 236 210 208 222 241 277 300 311 300 356 16 294 298 289 297 293 285 281 271 275 299 197 275 287 265 294 289 283 276 289 349 257 281 268 242 246 265 276 296 328 348 17 333 314 302 301 316 338 342 323 331 354 21 38 49 70 77 80 80 76 74 69 65 61 59 56 62 59 48 42 42 37 40 43 46 45 45 41
243 203 297 307 272 246 195 252 216 249 341 215 243 303 298 320 333 313 311 302 288 297 294 286 279 285 287 284 261 232 217 230 265 270 256 270 259 275 159 268 265 245 251 269 270 270 275 294 329 15 358 312 299 298 298 327 337 330 314 336 346 16 55 86 103 110 111 106 98 84 83 76 69 61 66 52 40 51 53 54 52 50 53 51 49 47 47
315 328 301 255 253 225 224 230 322 277 232 266 290 292 311 312 281 276 278 281 293 295 277 282 280 260 244 180 227 274 284 253 275 258 254 283 273 271 262 241 244 239 229 268 272 292 304 318 323 7 348 332 295 294 311 315 329 329 310 313 310 354 136 158 128 131 143 127 113 107 110 100 90 80 79 74 67 55 50 54 55 54 55 59 57 49 40
308 288 269 275 289 297 271 341 290 276 274 253 253 264 261 267 276 284 297 291 276 262 268 274 284 289 278 279 275 268 257 204 253 254 177 214 232 222 220 249 247 262 242 232 270 296 305 314 334 12 271 287 289 272 288 298 317 320 299 282 245 248 160 173 163 154 162 146 146 141 137 133 133 120 112 107 85 68 57 59 60 57 52 52 50 45 43
241 225 222 242 263 251 249 269 268 276 274 265 257 261 262 270 276 283 299 268 256 264 260 246 219 263 277 278 269 260 266 242 249 250 247 245 240 237 232 257 248 247 275 274 275 284 295 302 307 297 277 260 280 278 275 276 251 295 301 267 221 220 200 171 178 164 171 166 161 164 156 154 168 149 126 105 95 92 74 58 55 62 58 50 47 48 44
203 246 256 244 251 281 310 285 292 296 291 286 290 290 289 278 281 282 253 271 272 263 254 258 247 238 246 234 233 253 250 206 240 237 243 254 234 232 241 248 259 266 269 273 280 288 299 309 310 312 317 282 279 280 268 262 264 288 270 237 220 216 186 196 192 181 175 183 171 168 175 168 158 146 135 138 135 126 107 85 61 58 61 53 44 43 47
218 228 245 242 245 257 267 278 281 275 282 289 288 288 280 273 274 275 228 258 252 250 261 256 242 244 229 232 224 254 254 218 248 252 247 242 222 241 251 260 275 278 285 287 287 295 303 306 308 264 264 283 282 281 276 260 274 291 265 233 223 214 194 189 193 187 184 186 179 172 166 162 162 165 169 171 165 161 131 102 89 66 55 60 59 52 50